Regional Weather Roundup
Issued by NWS

Home | Current Version | Previous Version | Graphics & Text | Print | Product List | Glossary On
Versions: 1 2 3 4 5 6 7 8 9 10 11 12 13 14 15 16 17 18 19 20 21 22 23 24 25 26 27
000
ASUS45 KTFX 201610
RWRMT
MONTANA REGIONAL WEATHER ROUNDUP
NATIONAL WEATHER SERVICE GREAT FALLS MT
900 AM MST FRI JAN 20 2017

NOTE: "FAIR" INDICATES FEW OR NO CLOUDS BELOW 12000 FEET WITH NO
SIGNIFICANT WEATHER AND/OR OBSTRUCTIONS TO VISIBILITY.

MTZ001>007-043-201700-
WEST OF THE DIVIDE

CITY           SKY/WX    TMP DP  RH WIND       PRES   REMARKS
KALISPELL      CLOUDY    25  24  96 CALM      29.47S FOG
MISSOULA       FOG       32  32 100 SE8       29.50F VSB 1   WCI  25
BUTTE          FOG       10   8  92 CALM      29.46F VSB 1/4
MULLAN PASS    FOG       25  21  85 SE8       29.35F VSB 3/4 WCI  16
ANACONDA         N/A     28  21  74 SE6       29.46F WCI  22
DEER LODGE       N/A     27  27 100 CALM      29.49F VSB 0
EUREKA           N/A     36  30  80 S10       29.45S WCI  28
HAMILTON         N/A     27  25  93 CALM      29.50  VSB 0
PLAINS           N/A     28  24  85 CALM      29.52F VSB 0
RONAN            N/A     25  23  91 CALM      29.53S
$$

MTZ008-052>055-201700-
SOUTHWEST MONTANA

CITY           SKY/WX    TMP DP  RH WIND       PRES   REMARKS
BOZEMAN        CLEAR     19  18  95 S8        29.49F WCI   9
DILLON         CLOUDY    25  12  58 S6        29.49S WCI  18
W YELLOWSTONE  CLOUDY    25  21  86 S3        29.52S
ENNIS          MOCLDY    21  16  79 S12       29.53F WCI   9
TWIN BRIDGES     N/A     14   6  70 SE5       29.54F
$$

MTZ009-010-012-014-046-048-049-054-201700-
EAST SLOPES AND CENTRAL MONTANA

CITY           SKY/WX    TMP DP  RH WIND       PRES   REMARKS
CUT BANK       CLEAR     24  19  81 W8        29.40F WCI  15
GREAT FALLS    CLOUDY    34  24  67 W7        29.44R WCI  28
MALMSTROM AFB  CLEAR     33  26  75 SW5       29.45S
HELENA         CLOUDY    24  21  88 SE3       29.48S
AUGUSTA          N/A     28  17  61 W13       29.41F WCI  18
BOWMANS CRNR     N/A     25  21  83 S10       29.42S WCI  15
CHOTEAU          N/A     28  18  64 SE5       29.43F
CONRAD           N/A     18  14  84 SW5       29.50R
POWER            N/A     27  21  77 SW6       29.42F WCI  21
RAYNESFORD       N/A     29  22  74 CALM      29.44S
ULM            MOCLDY    32  24  74 MISG      29.44F
$$

MTZ011-013-016-021-045-047-050-051-201700-
NORTH CENTRAL MONTANA

CITY           SKY/WX    TMP DP  RH WIND       PRES   REMARKS
HAVRE          CLEAR     27  24  89 W6        29.43F WCI  20
LEWISTOWN      CLEAR     28  24  85 SE5       29.44F
CHINOOK          N/A     30  27  86 CALM      29.43F
DENTON           N/A     31  24  73 W20       29.41S WCI  19
FORT BENTON      N/A     36  27  69 MISG      29.47S
GEYSER           N/A     31  23  74 SW7       29.43F WCI  24
GRASS RANGE      N/A     33  28  83 W6        29.42S WCI  27
JUDITH GAP       N/A     30  22  71 W15       29.43F WCI  19
ROY              N/A     35  27  73 MISG      29.43F
STANFORD         N/A     30  23  75 W5        29.43F
WINIFRED         N/A     33  26  76 SW6       29.43F WCI  27
$$

MTZ017>020-022>027-061-062-201700-
NORTHEAST MONTANA

CITY           SKY/WX    TMP DP  RH WIND       PRES   REMARKS
GLASGOW        CLOUDY    30  25  81 W8        29.42R WCI  22
JORDAN           N/A     34  32  92 W7        29.43S WCI  28
SIDNEY         SUNNY     17  14  88 S3        29.42R
WOLF POINT     CLEAR     19  17  92 CALM      29.43R FOG
PLENTYWOOD       N/A     25  21  86 NW8       29.39S WCI  16
POPLAR           N/A     19  18  93 CALM      29.44R
SCOBEY           N/A     17  10  74 CALM      29.42S VSB 0
$$

MTZ028>42-056>058-201700-
SOUTHCENTRAL AND SOUTHEAST MONTANA

CITY           SKY/WX    TMP DP  RH WIND       PRES   REMARKS
BAKER          CLOUDY    22  19  89 W10       29.41F WCI  11
BILLINGS       CLOUDY    34  27  75 SW15      29.47F WCI  24
LIVINGSTON     CLOUDY    31  25  78 W9        29.47F WCI  23
MILES CITY     CLOUDY    31  29  92 SW8       29.44S WCI  23
BIG TIMBER     CLEAR     34  23  64 W14       29.49F WCI  24
EKALAKA          N/A     28  25  89 W6        29.45F VSB 0   WCI  22
FORSYTH          N/A     36  36 100 SW7       29.46S WCI  30
HARLOWTON        N/A     31  25  80 SW3       29.45F
LAUREL           N/A     32  22  67 SW6       29.51F WCI  26
$$

REGIONAL REPORTS...DAKOTAS

CITY           SKY/WX    TMP DP  RH WIND       PRES   REMARKS
WILLISTON      SUNNY     15  13  91 SW3       29.39F
MINOT          CLOUDY    21  17  84 E3        29.39R
DICKINSON      CLOUDY    25  22  88 W12       29.34F WCI  14
BEACH            N/A     30  27  86 NW15      29.42S WCI  19
CROSBY           N/A     16  14  93 SW5       29.40S
TIOGA            N/A     18  18 100 S5        29.39R
WATFORD CITY     N/A     21  19  93 S3        29.40R
BISMARCK       FOG       24  22  91 W6        29.43R VSB 3/4 WCI  17
GRAND FORKS    FOG       36  33  89 SE12      29.51R VSB 1   WCI  28
FARGO          CLOUDY   N/A N/A N/A SE10      29.52R FOG
BUFFALO SD       N/A     34  28  79 NW24      29.29S WCI  21
RAPID CITY     CLOUDY    37  29  72 NW10      29.37F WCI  30
$$

REGIONAL REPORTS...WYOMING/IDAHO/WASHINGTON

CITY           SKY/WX    TMP DP  RH WIND       PRES   REMARKS
GILLETTE       CLOUDY    32  30  92 W8        29.45S WCI  25
SHERIDAN       MIX PCPN  35  32  88 SW7       29.48S WCI  29
BUFFALO WY     LGT SNOW  33  29  85 N3        29.47S VSB 1
CODY           CLOUDY    27  20  75 CALM      29.48F
YELLOWSTONE LA   N/A     19  18  95 CALM      29.52F
IDAHO FALLS    LGT SNOW  27  26  96 E3        29.57S FOG
SALMON         CLOUDY    21  19  93 CALM      29.54S
BOISE          CLOUDY    36  28  73 E15       29.41F WCI  27
SPOKANE        MOCLDY    29  28  96 NE10      29.37F FOG     WCI  20
$$

REGIONAL REPORTS...ALBERTA

CITY           SKY/WX    TMP DP  RH WIND       PRES   REMARKS
EDMONTON       PTCLDY    21  12  68 SW5       29.32S
CALGARY        PTCLDY    27  12  54 SW5       29.32F
LETHBRIDGE     PTCLDY    30  21  69 SW13      29.38S WCI  20
MEDICINE HAT   PTCLDY    30  25  80 SW12      29.38S WCI  21
WATERTON GATE    N/A     34  18  51 SW9G17      N/A  WCI  26
CARDSTON         N/A     30  18  59 SW7         N/A  WCI  23
MILK RIVER       N/A     27  21  80 W5          N/A
$$

REGIONAL REPORTS...SASKATCHEWAN

CITY           SKY/WX    TMP DP  RH WIND       PRES   REMARKS
SWIFT CURRENT  PTCLDY    34  27  75 W14       29.35R WCI  24
REGINA         PTCLDY    16  14  93 E5        29.36F
SASKATOON      CLOUDY    28  27  93 SW2       29.33S
CYPRESS HILLS    N/A     30  16  55 W2          N/A
VAL MARIE        N/A     30  27  86 W5          N/A
ROCKGLEN         N/A     30  27  86 W10         N/A  WCI  21
ASSINIBOIA       N/A     14  12  92 W3          N/A
$$




USA.gov is the U.S. government's official web portal to all federal, state and local government web resources and services.